Flag for U.S.A. Weather past 2 weeks in Orange, California, U.S.A.

Now
61 °F

Overcast.


Feels Like: 61 °F
Forecast: 58 / 73 °F
Wind: 3 mph from Southeast

Location: John Wayne Airport-Orange County Airport

Current Time: May 26, 2015 at 5:45:45 AM

Latest Report: May 26, 2015 at 4:53 AM


Visibility: 10 mi

Pressure: 29.98 "Hg

Humidity: 78%

Dew point: 54 °F

Location of OrangeLocation

Historic Weather in Orange — Graph

°F

Orange temperature yesterday

Maximum temperature yesterday: 67 °F (at 3:53 PM)
Minimum temperature yesterday: 61 °F (at 12:53 AM)
Average temperature yesterday: 63 °F

Past Weeks' High & Low Weather Summary

 TemperatureHumidityPressure
High71 °F (May 11, 1:53 PM)87% (May 11, 5:53 AM)30.09 "Hg (May 11, 5:53 AM)
Low54 °F (May 14, 3:53 PM)44% (May 21, 12:53 PM)29.81 "Hg (May 11, 6:53 PM)
Average62 °F68%29.97 "Hg
* Reported May 11 3:53 AM — May 26 3:53 AM, Orange, Weather by CustomWeather, © 2015

Note: Actual official high and low records may vary slightly from our data, if they occured in-between our weather recording intervals... More about our weather records

Advertising

Orange weather history for previous 24 hours

 ConditionsComfort  
Time TempWeatherWind HumidityBarometerVisibility
3:53 AM
Tue, May 26
61 °FOvercast.6 mph78%29.98 "Hg10 mi
2:53 AM62 °FOvercast.3 mph73%29.97 "Hg10 mi
1:53 AM62 °FOvercast.5 mph75%29.97 "Hg10 mi
12:53 AM62 °FOvercast.3 mph75%29.98 "Hg10 mi
11:53 PM
Mon, May 25
62 °FOvercast.5 mph73%29.99 "Hg10 mi
10:53 PM62 °FOvercast.No wind73%30.00 "Hg10 mi
9:53 PM62 °FMostly cloudy.6 mph73%29.99 "Hg10 mi
8:53 PM62 °FMostly cloudy.9 mph75%29.98 "Hg10 mi
7:53 PM63 °FMore clouds than sun.8 mph70%29.96 "Hg10 mi
6:53 PM64 °FBroken clouds.9 mph70%29.95 "Hg10 mi
5:53 PM64 °FOvercast.9 mph70%29.95 "Hg10 mi
4:53 PM66 °FOvercast.13 mph65%29.96 "Hg10 mi
3:53 PM67 °FPartly sunny.8 mph63%29.96 "Hg10 mi
2:53 PM66 °FOvercast.7 mph65%29.98 "Hg10 mi
1:53 PM65 °FMore clouds than sun.No wind68%29.99 "Hg10 mi
12:53 PM64 °FPartly sunny.9 mph70%30.01 "Hg10 mi
11:53 AM63 °FOvercast.9 mph73%30.01 "Hg10 mi
10:53 AM64 °FOvercast.3 mph68%30.00 "Hg10 mi
9:53 AM62 °FOvercast.3 mph75%30.00 "Hg10 mi
8:53 AM62 °FOvercast.No wind73%29.99 "Hg10 mi
7:53 AM62 °FOvercast.No wind73%29.98 "Hg10 mi
6:53 AM61 °FPartly sunny.No wind75%29.97 "Hg10 mi
5:53 AM61 °FPassing clouds.5 mph72%29.95 "Hg10 mi
Weather by CustomWeather, © 2015

See weather overviewHow to use our weather pages